Theta_e
315 316 317 318 318 318 318 318 318 318 318 317 317 317 317 317 318 323 330 330 332 330 330 331 334 334 335 336 344 346 353 356 355 356 356 352 356 354 354 356 358 355 354 352 349
313 314 315 316 317 317 318 318 318 318 318 318 318 318 317 317 319 326 329 329 329 327 329 332 333 333 332 339 345 348 350 350 347 349 355 354 354 354 354 357 357 353 349 339 350
312 313 313 314 316 316 317 317 318 319 319 319 319 318 317 316 329 329 329 328 328 325 327 331 333 333 335 339 342 343 346 344 347 345 350 352 352 351 356 356 353 351 344 343 347
311 311 312 313 314 315 316 317 318 318 319 319 319 318 317 319 332 331 329 328 326 324 326 330 332 334 334 338 340 341 340 342 343 345 347 349 348 353 353 353 354 349 342 338 347
311 311 311 312 313 314 315 316 317 318 319 320 319 318 318 328 329 330 328 328 327 325 329 330 333 332 333 334 340 339 339 341 343 342 342 345 349 349 349 352 352 349 345 349 352
311 311 311 312 313 314 315 315 316 317 319 320 318 317 327 328 331 332 331 332 330 329 329 332 333 331 333 333 336 337 339 338 337 337 339 345 345 346 349 348 355 354 352 352 352
311 311 311 312 312 313 314 315 316 317 319 320 318 317 325 327 330 329 330 331 329 329 329 333 333 331 331 332 335 335 336 336 336 335 338 340 346 348 345 344 348 352 351 352 347
312 312 312 312 312 313 314 315 316 318 320 318 317 322 326 328 328 328 328 330 329 331 332 333 332 331 331 331 333 335 337 343 337 336 338 336 343 348 344 346 346 348 348 349 346
314 313 312 312 312 313 313 314 316 320 318 317 318 323 324 328 328 327 327 329 330 332 332 333 331 330 331 331 331 335 340 341 341 336 334 332 333 349 346 347 344 347 347 348 347
317 315 313 313 312 313 313 315 319 319 319 323 325 325 327 326 327 326 327 329 328 328 329 330 328 328 329 330 333 335 337 339 337 334 334 333 334 334 342 348 345 346 346 347 347
318 318 315 313 312 313 313 324 323 325 325 322 322 328 326 327 326 325 328 329 327 329 327 327 327 328 329 329 330 330 331 331 332 334 333 335 332 332 333 342 344 341 343 347 351
316 317 318 314 313 313 313 323 330 326 327 325 323 323 323 325 325 326 328 328 327 328 328 328 327 330 331 329 328 329 330 329 331 335 333 331 332 332 333 334 338 342 338 348 348
316 317 317 316 313 313 314 318 325 324 328 331 324 323 322 324 323 324 324 326 327 328 328 327 328 329 330 329 328 326 327 328 330 334 332 331 332 334 338 335 334 336 339 339 347
318 318 316 315 313 317 318 322 322 324 330 333 325 323 323 324 323 325 326 326 327 327 328 328 328 329 328 327 327 325 326 328 331 331 332 331 331 330 337 335 336 333 333 335 347
320 319 315 313 322 327 327 326 325 326 343 331 327 327 325 323 325 326 327 326 325 328 329 326 327 327 327 326 326 326 328 330 331 331 330 331 332 335 336 337 337 338 337 337 348
322 319 315 313 314 327 330 331 330 333 338 332 330 327 325 325 325 327 327 326 325 326 327 327 328 328 329 329 328 328 329 328 327 328 331 330 336 337 336 337 336 342 340 340 340
323 320 314 323 328 330 330 330 333 335 333 332 331 330 328 324 325 327 327 325 323 326 326 327 328 328 328 329 328 327 326 328 332 333 332 333 337 335 332 333 335 341 342 341 341
323 320 316 315 327 329 330 332 340 337 331 331 331 327 327 326 324 326 329 327 325 324 325 328 331 330 328 329 330 330 328 329 335 333 335 334 337 334 334 332 334 340 341 342 342
321 324 320 321 328 328 332 336 337 337 336 334 329 329 328 327 328 328 329 328 327 325 328 332 334 332 331 331 330 330 329 327 327 328 331 335 337 334 335 336 338 339 343 345 343
324 330 332 329 328 329 335 336 336 335 335 333 335 331 331 329 330 330 331 330 331 332 330 332 331 331 331 331 329 329 329 329 328 333 335 333 339 339 336 338 341 345 345 345 344
326 335 336 334 330 332 337 335 335 333 332 334 334 335 336 333 332 331 330 335 334 334 331 332 333 333 333 332 333 331 331 331 329 335 338 336 339 338 346 347 347 347 346 344 344
329 341 331 329 332 332 332 333 329 333 331 331 332 335 334 336 338 336 336 335 333 333 335 332 331 332 332 330 330 329 330 328 339 338 336 338 333 341 340 341 345 350 348 347 346
331 338 330 329 331 330 331 331 332 330 330 331 331 333 332 334 337 335 335 333 332 334 334 331 333 332 330 327 328 328 327 325 326 333 338 337 338 339 338 338 337 337 340 345 346
331 342 335 330 328 330 335 336 331 328 328 329 331 331 332 332 331 333 332 333 331 331 336 330 328 330 330 329 327 327 327 326 325 326 329 330 339 340 338 340 338 334 333 343 346
332 337 332 339 334 331 333 335 336 331 330 330 330 331 331 332 334 335 332 332 332 339 330 326 328 330 328 328 328 328 329 328 326 326 327 326 327 335 340 336 335 333 341 347 344
329 331 330 329 331 338 333 335 334 334 333 334 333 333 334 334 333 334 331 330 333 331 330 329 331 332 332 330 329 330 329 328 328 328 326 326 329 340 339 343 347 346 347 344 343
322 323 330 330 330 332 333 336 334 334 332 331 330 331 332 331 329 327 326 326 326 325 324 326 327 330 331 330 329 330 329 329 329 327 328 331 340 338 339 343 344 346 342 342 341
Wind_Speed
9 9 9 9 9 9 10 10 10 10 11 12 13 15 16 19 19 11 6 6 5 13 18 23 29 33 27 11 5 3 3 3 2 3 3 5 4 4 9 19 21 6 9 4 10
10 11 10 10 10 10 10 11 11 11 11 12 13 15 16 19 18 11 14 15 10 12 18 17 18 22 5 4 5 4 4 1 6 8 6 6 4 4 3 12 16 14 18 27 20
12 12 12 12 11 11 10 11 11 11 11 12 13 15 15 16 4 5 8 9 8 11 17 22 24 19 18 4 6 4 4 5 7 3 3 2 5 8 11 3 6 18 18 16 16
13 13 12 12 11 11 11 11 11 11 11 11 13 15 15 6 4 2 8 6 6 10 15 17 11 14 7 4 5 5 2 7 4 4 3 2 4 5 7 4 18 23 21 15 15
13 13 13 12 11 11 10 11 10 11 10 10 12 14 5 3 8 6 6 4 5 9 15 14 17 7 9 7 6 8 2 7 8 6 6 3 3 2 2 12 21 20 19 18 14
14 14 13 11 11 10 10 10 10 10 9 9 10 10 2 5 6 8 6 7 6 13 18 17 8 11 8 12 4 2 7 4 7 5 3 6 1 5 5 11 20 21 20 18 16
14 14 13 12 10 10 9 10 9 9 7 7 7 6 5 13 6 6 2 11 9 16 11 20 9 9 10 9 5 5 8 8 6 5 4 5 3 3 9 4 11 19 20 22 13
15 13 12 11 9 9 9 9 8 7 6 5 5 1 7 15 17 25 9 12 13 16 16 10 13 8 6 10 11 7 7 3 7 8 8 7 5 9 9 6 10 14 12 14 11
14 13 12 10 8 9 9 8 7 6 5 4 3 4 8 9 13 11 13 14 11 8 12 9 3 7 11 7 7 8 3 5 8 8 4 4 9 14 10 10 11 13 13 14 9
14 12 11 9 8 8 7 7 5 5 3 3 9 5 8 11 17 16 15 17 6 8 7 6 4 6 7 4 5 6 1 4 5 3 6 1 10 8 14 15 14 12 12 13 12
14 12 9 7 7 7 4 3 2 2 7 10 9 5 2 17 21 13 18 12 8 4 7 9 3 8 14 9 6 5 6 6 8 9 3 3 8 11 10 17 11 9 10 14 23
16 13 9 7 7 7 5 4 10 13 7 19 19 13 25 10 5 6 10 6 7 8 9 6 9 16 14 8 9 7 2 8 8 9 4 7 11 15 12 8 10 13 10 16 18
14 9 6 7 7 8 12 18 12 21 3 7 15 8 10 5 8 10 11 9 8 8 11 8 12 12 4 3 7 8 6 8 8 5 7 7 9 9 3 8 7 9 12 10 17
11 5 4 6 3 3 7 10 15 14 3 2 7 7 9 6 6 15 20 9 7 10 10 7 10 9 5 6 5 5 11 11 8 6 4 3 10 13 6 8 8 8 8 9 16
10 4 4 13 5 4 11 9 14 10 4 14 9 10 9 9 4 4 24 7 9 11 3 10 10 6 6 9 8 7 8 7 7 5 5 12 1 8 7 4 6 6 6 3 19
9 4 5 5 11 9 7 4 2 1 6 9 6 7 7 8 10 6 4 5 6 10 10 10 10 6 4 6 6 7 5 9 7 0 3 10 3 7 3 7 3 6 6 6 12
9 5 11 8 5 9 15 5 1 4 8 10 7 11 9 9 11 9 9 6 5 4 7 13 18 12 7 4 7 7 3 4 5 2 5 10 4 5 12 5 6 8 6 6 9
9 6 6 20 11 13 12 1 4 9 9 8 10 11 9 10 11 9 7 6 10 9 8 7 12 18 8 7 7 4 5 5 6 4 5 4 6 3 3 7 7 10 9 6 4
8 6 7 15 7 10 2 3 4 7 10 5 10 10 9 12 9 10 10 11 11 12 5 4 7 6 9 6 4 5 5 6 4 6 3 5 7 6 6 8 10 11 14 13 5
2 6 15 14 14 11 2 6 7 10 9 12 6 7 8 10 8 8 6 9 8 8 8 5 5 7 11 1 6 7 6 6 5 3 6 7 3 3 2 5 12 16 13 12 13
1 3 8 20 19 2 4 6 13 7 8 6 10 10 14 4 7 7 6 4 11 7 8 5 3 9 9 5 3 6 4 4 3 4 2 3 4 2 12 15 17 17 14 11 10
6 3 17 19 3 3 6 7 3 9 3 5 6 6 7 10 9 4 9 6 8 8 4 5 0 3 9 12 9 7 4 6 4 7 4 3 4 13 18 15 14 14 14 9 10
3 4 15 17 4 7 9 15 5 7 4 4 3 9 9 7 5 8 7 5 7 6 3 4 4 4 10 11 4 8 13 10 10 3 1 2 1 9 13 6 4 6 6 5 7
3 3 2 3 5 10 13 14 4 5 3 7 8 8 8 7 8 5 5 5 7 6 7 6 2 4 5 7 9 9 13 13 5 3 5 4 3 4 3 6 8 7 7 5 6
3 3 3 2 5 10 10 6 9 4 5 6 5 7 5 5 7 8 11 10 6 8 4 5 2 5 8 9 11 14 14 14 11 8 5 8 9 7 13 9 2 5 4 7 9
4 4 6 7 10 5 4 5 8 7 6 7 8 12 12 8 7 7 9 8 4 5 6 4 3 4 5 8 10 11 12 12 10 9 8 8 7 7 11 7 6 4 2 9 9
11 9 3 6 8 6 7 7 12 8 7 10 10 7 11 10 8 8 8 8 7 6 5 5 4 4 4 7 11 8 9 12 13 10 3 5 5 10 8 9 5 2 6 7 5
Wind_Direction
339 333 327 324 322 320 321 322 322 322 322 323 323 325 325 324 319 314 265 260 261 301 315 306 300 275 271 244 99 82 75 292 155 346 62 146 88 18 119 92 67 21 103 337 234
335 330 324 321 317 316 317 318 318 318 320 319 321 322 328 333 326 270 252 252 275 303 299 307 312 318 283 152 128 97 110 27 54 36 359 67 154 196 127 122 119 97 113 158 225
331 326 322 319 315 312 314 315 314 316 317 318 319 320 331 332 291 221 209 219 261 283 283 300 297 294 294 132 156 136 95 62 71 23 356 301 340 127 184 92 169 155 165 195 199
327 322 320 314 312 310 311 312 311 312 315 317 319 320 325 330 342 149 170 196 251 269 288 295 289 288 280 220 120 113 252 114 110 156 241 94 306 113 118 118 138 155 174 183 193
321 318 317 313 309 308 307 307 308 310 313 316 319 327 344 250 249 225 178 180 246 266 266 277 287 330 350 353 74 57 322 141 166 174 140 161 86 34 347 119 132 147 165 186 209
318 314 312 309 304 303 302 302 303 306 307 311 317 327 316 266 186 143 192 180 234 236 264 271 296 330 321 338 50 336 271 254 147 126 168 112 220 94 300 136 144 159 174 192 204
314 311 307 305 300 298 297 297 297 298 296 301 310 336 270 238 330 330 209 237 221 237 249 275 2 2 324 313 19 275 279 255 149 161 139 142 311 240 203 218 162 166 180 192 176
311 307 301 300 295 292 291 289 291 288 285 282 290 348 253 266 273 265 264 265 225 244 260 328 4 334 290 294 301 241 288 40 211 180 189 143 247 253 221 204 224 169 176 170 177
314 304 296 291 287 285 285 287 289 281 271 262 290 213 262 269 226 218 253 253 205 258 282 283 14 264 292 279 298 258 103 355 296 180 142 86 295 220 214 212 221 177 179 170 166
316 306 293 280 276 275 285 294 274 280 272 251 266 286 262 230 200 217 232 255 243 205 244 230 222 248 277 262 258 31 81 204 255 202 117 126 269 284 206 209 209 181 184 163 147
317 307 290 270 260 266 277 331 272 265 244 202 198 235 311 222 231 196 203 220 283 267 233 239 200 248 258 257 287 51 2 312 307 300 155 223 272 274 259 192 189 194 184 170 162
316 302 272 251 244 248 246 248 258 340 255 222 253 252 261 314 170 191 215 182 223 244 249 269 238 239 257 290 325 329 274 290 289 286 50 314 284 277 265 196 173 192 198 185 174
324 303 259 227 233 247 226 236 292 321 286 243 208 236 229 187 266 207 179 204 244 230 248 227 254 275 229 326 309 318 290 261 243 307 348 317 304 298 323 134 170 188 199 175 176
338 303 233 187 216 249 237 259 253 266 300 176 172 239 213 201 256 244 187 177 227 248 261 251 264 274 332 332 303 260 283 314 328 24 300 298 293 306 200 162 181 225 215 197 170
346 304 208 187 300 255 288 250 244 231 309 148 180 194 176 190 188 238 174 184 251 269 302 250 275 248 236 241 257 266 315 320 316 303 350 295 310 278 128 135 184 176 95 314 158
344 304 209 221 264 257 347 313 237 267 249 172 131 174 176 213 266 131 145 189 229 258 287 277 285 268 222 306 333 320 360 299 285 7 331 275 102 358 276 184 169 112 114 35 140
333 281 214 201 215 326 274 283 271 238 162 146 169 167 205 199 245 177 176 196 207 253 260 266 258 249 209 224 270 263 260 310 328 36 212 254 317 187 253 140 127 160 125 86 127
325 280 242 240 259 303 317 244 255 273 249 189 159 152 184 205 219 222 163 222 218 228 264 271 313 192 191 190 216 294 202 181 286 270 236 349 335 300 355 95 43 94 149 158 141
319 295 249 243 230 272 292 222 251 313 3 338 150 152 201 218 216 201 187 214 219 203 204 2 327 351 135 197 107 289 338 263 318 295 3 152 184 322 30 42 85 70 47 16 25
319 268 247 223 198 233 243 245 274 271 13 346 344 174 204 214 187 191 199 224 244 108 97 344 343 343 326 128 217 187 230 358 346 345 318 320 343 237 64 41 62 46 40 17 9
249 247 238 185 183 237 234 256 289 309 23 321 341 329 332 274 190 217 243 21 21 104 89 43 49 306 342 302 333 338 313 255 258 124 164 300 295 143 66 56 60 40 22 9 355
302 273 149 161 175 213 238 248 281 339 25 275 321 307 332 3 1 50 64 64 24 46 40 25 290 298 273 290 305 308 345 354 134 277 201 188 311 95 67 48 56 56 1 337 352
281 269 167 185 226 242 255 253 249 303 21 297 269 10 8 17 0 22 89 96 57 64 75 15 328 349 338 340 343 19 332 334 329 49 349 77 298 79 91 42 50 43 337 349 345
276 275 191 189 250 281 289 295 178 152 311 346 354 353 6 347 330 317 322 155 117 111 136 117 274 218 220 259 303 326 323 325 338 354 311 285 150 51 130 156 242 218 234 278 42
227 309 21 295 249 235 272 328 342 137 175 95 355 314 304 323 351 359 14 1 55 161 100 130 228 290 296 307 313 314 310 308 312 295 304 286 297 186 204 195 205 318 44 69 44
10 358 344 295 312 317 23 352 304 359 15 86 36 6 37 50 35 357 10 16 30 339 335 319 267 250 277 286 303 317 320 318 307 301 287 311 10 53 91 104 92 111 47 70 59
10 332 286 284 311 317 3 30 37 25 37 59 51 13 45 14 351 328 309 301 296 308 303 310 320 348 287 323 315 316 301 301 296 301 76 76 104 69 45 63 21 71 67 79 78